TimeCST,TemperatureF,Dew PointF,Humidity,Sea Level PressureIn,VisibilityMPH,Wind Direction,Wind SpeedMPH,Gust SpeedMPH,PrecipitationIn,Events,Conditions,WindDirDegrees,DateUTC
12:53 AM,73.9,63.0,68,30.02,10.0,SSE,11.5,-,N/A,,Clear,150,2012-11-10 06:53:00
1:53 AM,73.9,63.0,68,30.01,10.0,SSE,12.7,-,N/A,,Clear,150,2012-11-10 07:53:00
2:53 AM,73.9,63.0,68,29.98,10.0,SSE,12.7,-,N/A,,Clear,150,2012-11-10 08:53:00
3:53 AM,73.0,62.1,68,29.98,10.0,SSE,10.4,-,N/A,,Clear,160,2012-11-10 09:53:00
4:53 AM,72.0,62.1,71,29.97,10.0,SSE,9.2,-,N/A,,Clear,160,2012-11-10 10:53:00
5:53 AM,72.0,62.1,71,29.98,10.0,SSE,8.1,-,N/A,,Clear,150,2012-11-10 11:53:00
6:53 AM,70.0,62.1,76,29.99,10.0,SSE,5.8,-,N/A,,Clear,150,2012-11-10 12:53:00
7:53 AM,75.0,63.0,66,30.01,10.0,SSE,6.9,-,N/A,,Clear,150,2012-11-10 13:53:00
8:53 AM,81.0,63.0,54,30.02,10.0,SSE,12.7,24.2,N/A,,Clear,160,2012-11-10 14:53:00
9:39 AM,82.4,62.6,51,30.02,10.0,SSE,19.6,27.6,N/A,,Partly Cloudy,150,2012-11-10 15:39:00
9:53 AM,82.0,62.1,51,30.03,10.0,SSE,18.4,28.8,N/A,,Scattered Clouds,160,2012-11-10 15:53:00
10:53 AM,84.9,63.0,48,30.01,9.0,SSE,21.9,29.9,N/A,,Clear,160,2012-11-10 16:53:00
11:53 AM,86.0,59.0,40,29.98,10.0,SSE,23.0,28.8,N/A,,Clear,150,2012-11-10 17:53:00
12:11 PM,86.0,60.8,43,29.97,10.0,SSE,23.0,29.9,N/A,,Partly Cloudy,160,2012-11-10 18:11:00
12:53 PM,86.0,62.1,44,29.95,10.0,SSE,24.2,32.2,N/A,,Partly Cloudy,150,2012-11-10 18:53:00
1:53 PM,84.9,63.0,48,29.93,9.0,SE,23.0,33.4,N/A,,Partly Cloudy,140,2012-11-10 19:53:00
2:53 PM,82.9,66.0,56,29.91,8.0,SSE,23.0,32.2,N/A,,Scattered Clouds,150,2012-11-10 20:53:00
3:53 PM,82.0,64.9,56,29.91,10.0,SSE,20.7,31.1,N/A,,Partly Cloudy,150,2012-11-10 21:53:00
4:53 PM,81.0,64.9,58,29.91,10.0,SE,19.6,32.2,N/A,,Partly Cloudy,140,2012-11-10 22:53:00
5:53 PM,79.0,66.0,64,29.93,10.0,SSE,18.4,25.3,N/A,,Partly Cloudy,150,2012-11-10 23:53:00
6:53 PM,78.1,66.0,66,29.94,10.0,SSE,16.1,-,N/A,,Clear,150,2012-11-11 00:53:00
7:53 PM,78.1,66.0,66,29.96,10.0,SSE,15.0,-,N/A,,Clear,150,2012-11-11 01:53:00
8:53 PM,77.0,66.0,69,29.96,10.0,SSE,16.1,-,N/A,,Clear,150,2012-11-11 02:53:00
10:53 PM,77.0,66.9,71,29.94,10.0,SSE,12.7,-,N/A,,Clear,150,2012-11-11 04:53:00
11:53 PM,77.0,66.9,71,29.94,10.0,SSE,11.5,-,N/A,,Clear,160,2012-11-11 05:53:00